Location: Newark
(41.6500°N, 71.4833°W)
Time: 23:43:21
(UTC+00:00)

Courier 1B - Pass Details

Date: 23 January 2020
Orbit: 962 x 1209 km, 28.3° (Epoch: 19 February)

Event Time Altitude Azimuth Distance (km) Brightness Sun altitude
Rises 08:36:19 0° 231° (SW) 3,918 - -39.0°
Reaches altitude 10° 08:39:34 10° 219° (SW) 3,001 - -38.4°
Maximum altitude 08:45:24 25° 167° (SSE) 2,148 - -37.3°
Exits shadow 08:46:01 25° 160° (SSE) 2,165 9.3 -37.2°
Drops below altitude 10° 08:51:25 10° 116° (ESE) 3,116 10.7 -36.2°
Sets 08:54:51 0° 104° (ESE) 4,099 11.7 -35.6°
